FW1393 Weather Reports


Display with metric or nautical units.
time (UTC)temp
F
wind
direction
speed
MPH
gust
MPH
rain 1hr
in
rain 24hr
in
rain mn
in
humidity
%
barometer
mb
20260507063032 55 313 0.0 1.0 0.00 0.12 0.00 84 1012.5
20260507061528 55 323 0.0 2.0 0.00 0.12 0.00 82 1012.4
20260507060026 54 281 0.0 2.0 0.00 0.12 0.00 83 1012.3
20260507054523 52 314 0.0 1.0 0.00 0.17 0.00 86 1012.2
20260507053024 50 340 0.0 3.0 0.00 0.17 0.00 88 1012.1
20260507051520 50 290 0.0 4.0 0.00 0.17 0.00 90 1011.9
20260507050019 49 319 0.0 3.0 0.00 0.25 0.00 92 1011.8
20260507044516 48 307 0.0 1.0 0.00 0.25 0.00 94 1011.4
20260507043014 47 292 0.0 3.0 0.00 0.25 0.00 94 1011.3
20260507041512 47 296 0.0 1.0 0.00 0.25 0.00 95 1011.1
20260507040013 48 314 0.0 0.0 0.00 0.28 0.00 94 1011.0
20260507034507 48 314 0.0 0.0 0.00 0.28 0.00 94 1010.9
20260507033007 48 314 0.0 0.0 0.00 0.28 0.00 94 1010.7
20260507031505 49 312 0.0 1.0 0.00 0.28 0.00 93 1010.8
20260507030005 49 322 0.0 3.0 0.00 0.28 0.00 93 1010.8
20260507024502 49 312 0.0 2.0 0.00 0.28 0.00 92 1010.8
20260507023103 50 323 0.0 2.0 0.00 0.28 0.00 92 1010.9
20260507021602 50 320 0.0 2.0 0.00 0.28 0.00 92 1010.8
20260507020104 50 308 0.0 1.0 0.00 0.28 0.00 91 1010.8
20260507014607 51 300 0.0 1.0 0.00 0.28 0.00 90 1010.8
20260507013057 51 325 0.0 1.0 0.00 0.28 0.00 90 1010.8
20260507011603 51 331 0.0 2.0 0.00 0.28 0.00 91 1010.8
20260507010056 51 311 0.0 3.0 0.00 0.28 0.00 90 1010.7
20260507004552 51 319 1.0 3.0 0.00 0.37 0.00 90 1010.7
20260507003052 50 304 0.0 2.0 0.00 0.37 0.00 92 1010.6
20260507001606 50 335 0.0 1.0 0.00 0.37 0.00 92 1010.3
20260507000057 50 311 0.0 1.0 0.00 0.37 0.00 91 1010.4
20260506234548 51 288 0.0 1.0 0.00 0.37 0.00 91 1010.3
20260506233046 51 299 0.0 1.0 0.00 0.37 0.00 91 1010.3
20260506231545 51 287 0.0 1.0 0.00 0.37 0.00 91 1010.2
20260506230048 51 338 0.0 2.0 0.00 0.37 0.00 91 1010.2
20260506224542 52 305 0.0 1.0 0.00 0.37 0.00 91 1010.2
20260506223039 52 307 0.0 1.0 0.00 0.37 0.00 89 1010.2
20260506221537 53 285 0.0 2.0 0.00 0.37 0.00 88 1010.1
20260506220033 54 316 0.0 4.0 0.00 0.37 0.00 88 1010.1
20260506214532 53 10 0.0 3.0 0.00 0.37 0.37 90 1009.9
20260506213033 54 310 0.0 1.0 0.00 0.37 0.37 89 1010.1
20260506211536 55 328 0.0 1.0 0.00 0.37 0.37 87 1009.9
20260506210031 55 343 0.0 2.0 0.00 0.37 0.37 88 1010.0
20260506204534 56 27 0.0 1.0 0.00 0.37 0.37 86 1009.8
20260506203039 56 11 0.0 2.0 0.00 0.37 0.37 86 1009.6
20260506201529 56 56 0.0 1.0 0.00 0.37 0.37 86 1009.1
20260506200038 57 301 0.0 1.0 0.00 0.37 0.37 85 1009.0
20260506194528 57 267 0.0 6.0 0.00 0.37 0.37 85 1008.5
20260506193026 57 327 1.0 5.0 0.00 0.37 0.37 85 1008.1
20260506191527 58 67 3.0 7.0 0.00 0.37 0.37 86 1007.9
20260506190034 58 37 1.0 7.0 0.00 0.37 0.37 85 1007.8
20260506184525 59 39 1.0 8.0 0.00 0.37 0.37 83 1007.4
20260506183025 60 72 2.0 11.0 0.00 0.37 0.37 81 1006.8
20260506181526 61 55 2.0 7.0 0.00 0.37 0.37 77 1006.4
20260506180025 62 43 4.0 8.0 0.00 0.37 0.37 74 1006.3
20260506174523 62 357 1.0 4.0 0.00 0.37 0.37 69 1006.0
20260506173022 62 296 1.0 4.0 0.00 0.37 0.37 68 1005.9
20260506171523 63 39 1.0 4.0 0.00 0.37 0.37 68 1005.7
20260506170022 64 43 2.0 7.0 0.00 0.37 0.37 69 1005.4
20260506164520 66 330 1.0 8.0 0.00 0.37 0.37 70 1005.3
20260506163037 67 32 0.0 4.0 0.00 0.37 0.37 71 1005.3
20260506161521 65 50 2.0 8.0 0.00 0.37 0.37 73 1005.2
20260506160019 64 344 2.0 6.0 0.00 0.37 0.37 72 1005.2
20260506154529 65 349 2.0 7.0 0.00 0.37 0.37 70 1005.2
20260506153016 67 331 3.0 6.0 0.00 0.37 0.37 68 1005.2
20260506151514 67 343 2.0 11.0 0.00 0.37 0.37 67 1005.3
20260506150114 68 8 2.0 9.0 0.00 0.37 0.37 67 1005.3
20260506144512 68 314 2.0 7.0 0.00 0.37 0.37 68 1005.4
20260506143014 69 59 1.0 5.0 0.00 0.37 0.37 67 1005.4
20260506141509 67 77 2.0 6.0 0.00 0.37 0.37 69 1005.4
20260506140017 67 356 2.0 4.0 0.00 0.37 0.37 65 1005.5
20260506134506 67 317 1.0 3.0 0.00 0.37 0.37 62 1005.8
20260506133003 68 88 0.0 6.0 0.00 0.37 0.37 61 1005.8
20260506131502 68 133 1.0 5.0 0.00 0.37 0.37 63 1005.8
20260506130100 67 100 3.0 6.0 0.00 0.37 0.37 66 1005.9
20260506124601 67 69 2.0 5.0 0.00 0.37 0.37 68 1006.0
20260506123111 65 29 1.0 5.0 0.00 0.37 0.37 68 1005.9
20260506121608 64 153 3.0 6.0 0.00 0.37 0.37 71 1005.8
20260506120051 63 65 3.0 6.0 0.00 0.37 0.37 71 1006.0
20260506114549 63 214 1.0 6.0 0.00 0.37 0.37 74 1006.0
20260506113048 62 101 3.0 6.0 0.00 0.37 0.37 74 1006.1
20260506111547 62 83 2.0 7.0 0.00 0.37 0.37 73 1006.1
20260506110045 63 77 1.0 6.0 0.00 0.37 0.37 72 1006.2
20260506104546 62 284 2.0 6.0 0.00 0.39 0.37 77 1006.5
20260506103040 61 94 2.0 6.0 0.00 0.39 0.37 80 1006.6
20260506101539 61 102 0.0 4.0 0.00 0.39 0.37 80 1006.7
20260506100038 61 138 3.0 6.0 0.00 0.39 0.37 80 1006.7
20260506094535 61 81 1.0 5.0 0.00 0.40 0.37 82 1006.8
20260506093033 61 135 0.0 4.0 0.00 0.40 0.37 83 1006.9
20260506091529 58 353 1.0 4.0 0.00 0.40 0.37 85 1007.1
20260506090026 58 117 0.0 3.0 0.00 0.40 0.37 90 1007.2
20260506084533 56 78 1.0 3.0 0.00 0.42 0.37 95 1007.2
20260506083024 55 72 0.0 3.0 0.00 0.42 0.37 95 1007.3
20260506081518 54 295 0.0 2.0 0.00 0.42 0.37 95 1007.3
20260506073014 53 310 0.0 2.0 0.03 0.42 0.37 97 1007.4
20260506071513 53 331 0.0 1.0 0.07 0.42 0.37 97 1007.4